User: anonymous   Login
Location: Newark
(39.8500°N, 99.5772°W)
Time: 22:51:47
(UTC+00:00)
Language:

OTV 5 (USA 277) - Orbit

View from above orbital plane
View from above orbital plane
View from above satellite
View from above satellite

Ground track
Ground track

The orbit data is extracted from the following two-line orbital elements,

1 42932U 17052A   19251.81503082 0.00000000  00000-0  00000-0 0    03
2 42932  54.5161 162.7113 0033332 134.3369 225.9376 15.84701538    04
Epoch (UTC): 08 September 2019 19:33:38
Eccentricity: 0.0033332
inclination: 54.5161°
perigee height: 295 km
apogee height: 339 km
right ascension of ascending node: 162.7113°
argument of perigee: 134.3369°
revolutions per day: 15.84701538
mean anomaly at epoch: 225.9376°
orbit number at epoch: 0

The dashed part of the orbit path shows where the satellite is in the earth's shadow,  

DLR